Change the Weather History Date:

Wednesday, September 19, 2012

  Actual Average Record
Temperature  
Mean Temperature 52 °F -  
Max Temperature 60 °F 69 °F 91 °F (1940)
Min Temperature 44 °F 46 °F 29 °F (1937)
Degree Days  
Heating Degree Days 13    
Growing Degree Days 2 (Base 50)    
Moisture  
Dew Point 38 °F    
Average Humidity 59    
Maximum Humidity 71    
Minimum Humidity 45    
Precipitation  
Precipitation 0.00 in - - ()
Sea Level Pressure  
Sea Level Pressure 29.71 in    
Wind  
Wind Speed 11 mph (West)    
Max Wind Speed 23 mph    
Max Gust Speed 37 mph    
Visibility 10 miles    
Events Rain    
Averages and records for this station are not official NWS values.
T = Trace of Precipitation, MM = Missing Value Source: NWS Daily Summary

Daily Weather History Graph

Daily Weather History Graph

Search for Another Location

Airport or City:

Trip Planner

Search our weather history database for the weather conditions in past years. The results will help you decide how hot, cold, wet, or windy it might be!

Date:

Astronomy

Sep. 19, 2012 Rise Set
Actual Time 7:04 AM CDT 7:23 PM CDT
Civil Twilight 6:34 AM CDT 7:53 PM CDT
Nautical Twilight 5:58 AM CDT 8:28 PM CDT
Astronomical Twilight 5:22 AM CDT 9:05 PM CDT
Moon 11:34 AM CDT (9/19) 9:14 PM CDT (9/19)
Length of Visible Light 13h 19m
Length of Day
12h 18m
Waxing Crescent, 17% of the Moon is Illuminated
Sep 19
Waxing Crescent
Sep 22
First Quarter
Sep 29
Full
Oct 8
Last Quarter
Oct 15
New

Hourly Weather History & Observations

Time (CDT) Temp. Windchill Dew Point Humidity Pressure Visibility Wind Dir Wind Speed Gust Speed Precip Events Conditions
12:15 AM 48.2 °F - 33.8 °F 58% 29.75 in 10.0 mi South 9.2 mph - N/A   Scattered Clouds
12:35 AM 48.2 °F - 32.0 °F 54% 29.74 in 10.0 mi South 10.4 mph - N/A   Clear
12:53 AM 48.2 °F - 32.0 °F 54% 29.74 in 10.0 mi South 12.7 mph 20.7 mph N/A   Clear
1:15 AM 48.2 °F - 32.0 °F 54% 29.73 in 10.0 mi South 11.5 mph 16.1 mph N/A   Clear
1:35 AM 48.2 °F - 32.0 °F 54% 29.71 in 10.0 mi South 11.5 mph 18.4 mph N/A   Clear
1:53 AM 48.2 °F - 32.0 °F 54% 29.69 in 10.0 mi South 12.7 mph - N/A   Clear
2:15 AM 48.2 °F - 32.0 °F 54% 29.69 in 10.0 mi South 9.2 mph - N/A   Clear
2:35 AM 48.2 °F - 32.0 °F 54% 29.68 in 10.0 mi South 10.4 mph - N/A   Clear
2:53 AM 48.2 °F - 33.8 °F 58% 29.66 in 10.0 mi South 12.7 mph - N/A   Clear
3:15 AM 48.2 °F - 33.8 °F 58% 29.61 in 10.0 mi SSE 10.4 mph 17.3 mph N/A   Clear
3:35 AM 48.2 °F - 33.8 °F 58% 29.62 in 10.0 mi SSW 8.1 mph - N/A   Clear
3:52 AM 46.4 °F 42.4 °F 33.8 °F 62% 29.62 in 10.0 mi South 8.1 mph - N/A   Clear
4:15 AM 44.6 °F 42.2 °F 33.8 °F 66% 29.62 in 10.0 mi South 4.6 mph - N/A   Scattered Clouds
4:53 AM 44.6 °F 42.2 °F 33.8 °F 66% 29.61 in 10.0 mi South 4.6 mph - N/A   Drizzle
5:15 AM 46.4 °F 41.9 °F 35.6 °F 66% 29.59 in 10.0 mi SSW 9.2 mph - N/A   Scattered Clouds
5:35 AM 48.2 °F - 35.6 °F 62% 29.62 in 10.0 mi WSW 4.6 mph - N/A   Scattered Clouds
6:15 AM 48.2 °F - 37.4 °F 66% 29.60 in 10.0 mi SW 4.6 mph - N/A   Scattered Clouds
6:35 AM 51.8 °F - 37.4 °F 58% 29.62 in 10.0 mi WSW 10.4 mph - N/A   Scattered Clouds
6:53 AM 51.8 °F - 39.2 °F 62% 29.61 in 10.0 mi WSW 6.9 mph - N/A   Scattered Clouds
7:15 AM 51.8 °F - 39.2 °F 62% 29.62 in 10.0 mi WSW 9.2 mph - N/A   Scattered Clouds
7:35 AM 50.0 °F - 39.2 °F 66% 29.61 in 10.0 mi WSW 5.8 mph - N/A   Clear
7:53 AM 48.2 °F - 39.2 °F 71% 29.62 in 10.0 mi WSW 5.8 mph - N/A   Clear
8:15 AM 51.8 °F - 39.2 °F 62% 29.62 in 10.0 mi WSW 6.9 mph - N/A   Clear
8:35 AM 53.6 °F - 41.0 °F 62% 29.62 in 10.0 mi WSW 8.1 mph - N/A   Clear
8:53 AM 53.6 °F - 42.8 °F 67% 29.62 in 10.0 mi WSW 9.2 mph - N/A   Clear
9:15 AM 57.2 °F - 42.8 °F 59% 29.63 in 10.0 mi West 8.1 mph 16.1 mph N/A   Clear
9:53 AM 59.0 °F - 42.8 °F 55% 29.63 in 10.0 mi WNW 18.4 mph 23.0 mph N/A   Clear
10:15 AM 59.0 °F - 42.8 °F 55% 29.63 in 10.0 mi WNW 17.3 mph 27.6 mph N/A   Clear
10:35 AM 60.8 °F - 42.8 °F 52% 29.63 in 10.0 mi WNW 16.1 mph 24.2 mph N/A   Clear
10:53 AM 60.8 °F - 42.8 °F 52% 29.64 in 10.0 mi West 11.5 mph 23.0 mph N/A   Clear
11:15 AM 60.8 °F - 42.8 °F 52% 29.65 in 10.0 mi WNW 18.4 mph 29.9 mph N/A   Scattered Clouds
11:35 AM 59.0 °F - 42.8 °F 55% 29.66 in 10.0 mi WNW 15.0 mph 26.5 mph N/A   Mostly Cloudy
11:53 AM 60.8 °F - 42.8 °F 52% 29.66 in 10.0 mi WNW 17.3 mph 25.3 mph N/A   Mostly Cloudy
12:15 PM 59.0 °F - 42.8 °F 55% 29.67 in 10.0 mi WNW 18.4 mph 25.3 mph N/A   Mostly Cloudy
12:35 PM 60.8 °F - 44.6 °F 55% 29.67 in 10.0 mi NW 19.6 mph 28.8 mph N/A   Overcast
12:53 PM 59.0 °F - 42.8 °F 55% 29.69 in 10.0 mi WNW 17.3 mph 33.4 mph N/A   Overcast
1:15 PM 60.8 °F - 42.8 °F 52% 29.69 in 10.0 mi West 17.3 mph 25.3 mph N/A   Mostly Cloudy
1:35 PM 60.8 °F - 41.0 °F 48% 29.69 in 10.0 mi WNW 20.7 mph 28.8 mph N/A   Scattered Clouds
1:53 PM 60.8 °F - 39.2 °F 45% 20.49 in 10.0 mi West 17.3 mph 29.9 mph N/A   Scattered Clouds
2:15 PM 60.8 °F - 39.2 °F 45% 29.70 in 10.0 mi WNW 23.0 mph 33.4 mph N/A   Mostly Cloudy
2:35 PM 59.0 °F - 39.2 °F 48% 29.71 in 10.0 mi NW 18.4 mph 23.0 mph N/A   Mostly Cloudy
2:53 PM 53.6 °F - 42.8 °F 67% 29.73 in 10.0 mi NNW 18.4 mph 36.8 mph N/A Rain Light Rain
3:15 PM 55.4 °F - 42.8 °F 63% 29.75 in 10.0 mi WNW 19.6 mph 28.8 mph N/A   Mostly Cloudy
3:35 PM 55.4 °F - 42.8 °F 63% 29.75 in 10.0 mi WNW 13.8 mph 28.8 mph N/A   Scattered Clouds
3:53 PM 55.4 °F - 42.8 °F 63% 29.75 in 10.0 mi WNW 18.4 mph 27.6 mph N/A   Mostly Cloudy
4:15 PM 55.4 °F - 42.8 °F 63% 29.76 in 10.0 mi WNW 15.0 mph 29.9 mph N/A   Mostly Cloudy
4:34 PM 57.2 °F - 42.8 °F 59% 29.76 in 10.0 mi NW 23.0 mph 29.9 mph N/A   Overcast
4:53 PM 55.4 °F - 41.0 °F 58% 29.77 in 10.0 mi WNW 20.7 mph 31.1 mph N/A   Mostly Cloudy
5:15 PM 55.4 °F - 39.2 °F 54% 29.78 in 10.0 mi WNW 10.4 mph 23.0 mph N/A   Overcast
5:35 PM 55.4 °F - 39.2 °F 54% 29.78 in 10.0 mi NW 18.4 mph 29.9 mph N/A   Overcast
5:53 PM 55.4 °F - 37.4 °F 51% 29.78 in 10.0 mi WNW 13.8 mph 25.3 mph N/A   Overcast
6:15 PM 55.4 °F - 37.4 °F 51% 29.78 in 10.0 mi WNW 12.7 mph 23.0 mph N/A   Mostly Cloudy
6:35 PM 55.4 °F - 37.4 °F 51% 29.79 in 10.0 mi WNW 10.4 mph - N/A   Clear
6:53 PM 53.6 °F - 37.4 °F 54% 29.79 in 10.0 mi West 5.8 mph - N/A   Clear
7:15 PM 51.8 °F - 37.4 °F 58% 29.79 in 10.0 mi West 4.6 mph - N/A   Clear
7:35 PM 51.8 °F - 37.4 °F 58% 29.80 in 10.0 mi West 3.5 mph - N/A   Clear
8:15 PM 46.4 °F 43.5 °F 35.6 °F 66% 29.81 in 10.0 mi West 5.8 mph - N/A   Scattered Clouds
8:35 PM 48.2 °F - 35.6 °F 62% 29.82 in 10.0 mi NW 4.6 mph - N/A   Clear
8:52 PM 46.4 °F - 35.6 °F 66% 29.82 in 10.0 mi Calm Calm - N/A   Clear
9:15 PM 46.4 °F - 35.6 °F 66% 29.83 in 10.0 mi Calm Calm - N/A   Clear
9:35 PM 44.6 °F 43.1 °F 33.8 °F 66% 29.83 in 10.0 mi WNW 3.5 mph - N/A   Clear
9:52 PM 44.6 °F 43.1 °F 35.6 °F 71% 29.83 in 10.0 mi WNW 3.5 mph - N/A   Clear
10:15 PM 46.4 °F 44.3 °F 35.6 °F 66% 29.84 in 10.0 mi WNW 4.6 mph - N/A   Mostly Cloudy
10:35 PM 46.4 °F 43.5 °F 35.6 °F 66% 29.84 in 10.0 mi WNW 5.8 mph - N/A   Mostly Cloudy
10:52 PM 46.4 °F 43.5 °F 35.6 °F 66% 29.84 in 10.0 mi WNW 5.8 mph - N/A   Mostly Cloudy
11:35 PM 46.4 °F 44.3 °F 35.6 °F 66% 29.85 in 10.0 mi West 4.6 mph - N/A   Overcast
11:52 PM 46.4 °F 43.5 °F 35.6 °F 66% 29.85 in 10.0 mi West 5.8 mph - N/A   Mostly Cloudy